SCP
0 0 0 0 0 0 0 0 0 0 0 0 0 0 0 0 0 0 0 0 0 0 0 0 0 0 0 0 0 0 0 0 0 0 0 0 0 0 0 0 0 0 0
0 0 0 0 0 0 0 0 0 0 0 0 0 0 0 0 0 0 0 0 0 0 0 0 0 0 0 0 0 0 0 0 0 0 0 0 0 0 0 0 0 0 0
0 0 0 0 0 0 0 0 0 0 0 0 0 0 0 0 0 0 0 0 0 0 0 0 0 0 0 0 0 0 0 0 0 0 0 0 0 0 0 0 0 0 0
0 0 0 0 0 0 0 0 0 0 0 0 0 0 0 0 0 0 0 0 0 0 0 0 0 0 0 0 0 0 0 0 0 0 0 0 0 0 0 0 0 0 0
0 0 0 0 0 0 0 0 0 0 0 0 0 0 0 0 0 0 0 0 0 0 0 0 0 0 0 0 0 0 0 0 0 0 0 0 0 0 0 0 0 0 0
0 0 0 0 0 0 0 0 0 0 0 0 0 0 0 0 0 0 0 0 0 0 0 0 0 0 0 0 0 0 0 0 0 0 0 0 0 0 0 0 0 0 0
0 0 0 0 0 0 0 0 0 0 0 0 0 0 0 0 0 0 0 0 0 0 0 0 0 0 0 0 0 0 0 0 0 0 0 0 0 0 0 0 0 0 0
0 0 0 0 0 0 0 0 0 0 0 0 0 0 0 0 0 0 0 0 0 0 0 0 0 0 0 0 0 0 0 0 0 0 0 0 0 0 0 0 0 0 0
0 0 0 0 0 0 0 0 0 0 0 0 0 0 0 0 0 0 0 0 0 0 0 0 0 0 0 0 0 0 0 0 0 0 0 0 0 0 0 0 0 0 0
0 0 0 0 0 0 0 0 0 0 0 0 0 0 0 0 0 0 0 0 0 0 0 0 0 0 0 0 0 0 0 0 0 0 0 0 0 0 0 0 0 0 0
0 0 0 0 0 0 0 0 0 0 0 0 0 0 0 0 0 0 0 0 0 0 0 0 0 0 0 0 0 0 0 0 0 0 0 0 0 0 0 0 0 0 0
0 0 0 0 0 0 0 0 0 0 0 0 0 0 0 0 0 0 0 0 0 0 0 0 0 0 0 0 0 0 0 0 0 0 0 0 0 0 0 0 0 0 0
0 0 0 0 0 0 0 0 0 0 0 0 0 0 0 0 0 0 0 0 0 0 0 0 0 0 0 0 0 0 0 0 0 0 0 0 0 0 0 0 0 0 0
0 0 0 0 0 0 0 0 0 0 0 0 0 0 0 0 0 0 0 0 0 0 0 0 0 0 0 0 0 0 0 0 0 0 0 0 0 0 0 0 0 0 0
0 0 0 0 0 0 0 0 0 0 0 0 0 0 0 0 0 0 0 0 0 0 0 0 0 0 0 0 0 0 0 0 0 0 0 0 0 0 0 0 0 0 0
0 0 0 0 0 0 0 0 0 0 0 0 0 0 0 0 0 0 0 0 0 0 0 0 0 0 0 0 0 0 0 0 0 0 0 0 0 0 0 0 0 0 0
0 0 0 0 0 0 0 0 0 0 0 0 0 0 0 0 0 0 0 0 0 0 0 0 0 0 0 0 0 0 0 0 0 0 0 0 0 0 0 0 0 0 0
0 0 0 0 0 0 0 0 0 0 0 0 0 0 0 0 0 0 0 0 0 0 0 0 0 0 0 0 0 0 0 0 0 0 0 0 0 0 0 0 0 0 0
0 0 0 0 0 0 0 0 0 0 0 0 0 0 0 0 0 0 0 0 0 0 0 0 0 0 0 0 0 0 0 0 0 0 0 0 0 0 0 0 0 0 0
0 0 0 0 0 0 0 0 0 0 0 0 0 0 0 0 0 0 0 0 0 0 0 0 0 0 0 0 0 0 0 0 0 0 0 0 0 0 0 0 0 0 0
0 0 0 0 0 0 0 0 0 0 0 0 0 0 0 0 0 0 0 0 0 0 0 0 0 0 0 0 0 0 0 0 0 0 0 0 0 0 0 0 0 0 0
0 0 0 0 0 0 0 0 0 0 0 0 0 0 0 0 0 0 0 0 0 0 0 0 0 0 0 0 0 0 0 0 0 0 0 0 0 0 0 0 0 0 0
0 0 0 0 0 0 0 0 0 0 0 0 0 0 0 0 0 0 0 0 0 0 0 0 0 0 0 0 0 0 0 0 0 0 0 0 0 0 0 0 0 0 0
0 0 0 0 0 0 0 0 0 0 0 0 0 0 0 0 0 0 0 0 0 0 0 0 0 0 0 0 0 0 0 0 0 0 0 0 0 0 0 0 0 0 0
0 0 0 0 0 0 0 0 0 0 0 0 0 0 0 0 0 0 0 0 0 0 0 0 0 0 0 0 0 0 0 0 0 0 0 0 0 0 0 0 0 0 0
0 0 0 0 0 0 0 0 0 0 0 0 0 0 0 0 0 0 0 0 0 0 0 0 0 0 0 0 0 0 0 0 0 0 0 0 0 0 0 0 0 0 0
Wind_Speed
4 4 4 5 5 4 5 5 5 6 6 5 5 5 4 3 3 3 3 7 7 7 8 7 7 6 6 6 6 6 5 5 5 6 6 6 5 5 5 4 4 5 5
5 5 5 5 4 4 4 5 5 4 4 3 4 4 4 3 3 3 3 5 7 7 7 8 8 8 8 7 7 7 6 6 6 6 6 6 6 6 6 5 5 5 5
5 5 5 5 5 4 4 4 4 3 2 2 3 3 2 3 3 3 4 3 4 7 8 9 9 9 9 9 9 8 7 7 7 7 7 7 7 6 6 6 5 5 5
5 5 4 4 4 4 4 4 3 2 2 2 2 2 2 2 3 3 3 4 3 3 6 9 9 9 9 10 10 10 9 8 8 8 8 7 7 7 7 6 6 6 6
4 4 4 4 5 4 4 4 3 3 2 2 2 2 2 2 3 3 3 4 4 4 4 6 8 7 8 9 11 11 11 10 9 9 9 8 7 7 7 7 7 7 7
3 3 3 3 4 3 3 3 3 2 2 2 1 2 2 3 3 3 3 3 3 4 4 4 4 5 8 8 10 11 12 11 10 10 9 8 8 8 8 8 8 8 7
3 3 3 3 3 3 4 4 3 3 2 2 1 1 2 3 3 3 3 2 3 3 3 4 4 3 4 8 9 10 11 12 12 11 10 10 10 10 9 9 9 9 8
2 3 3 3 3 3 3 3 3 3 2 3 3 1 1 2 3 3 2 3 3 2 3 4 3 3 3 3 5 9 10 11 12 12 12 12 11 11 11 10 10 10 8
2 2 3 3 3 3 3 3 3 3 3 3 3 3 3 3 2 3 4 3 3 2 3 3 4 3 3 2 3 6 8 9 12 13 13 13 13 12 12 11 11 10 9
1 2 2 2 2 2 3 3 3 2 3 3 2 2 2 2 1 2 2 3 3 3 3 3 3 3 3 3 4 6 8 9 12 13 14 14 13 13 13 12 11 11 9
2 2 2 2 2 2 2 2 3 3 3 3 2 2 2 2 2 2 3 3 3 3 3 3 3 3 4 4 3 5 8 10 12 13 14 14 14 14 14 13 12 11 10
1 1 2 2 2 2 2 2 2 3 3 3 2 2 2 2 2 2 3 3 3 3 4 4 4 4 4 4 5 6 7 9 12 13 14 14 14 14 14 14 13 12 11
1 1 1 1 1 2 2 2 2 2 3 3 3 3 3 3 2 2 3 3 4 3 3 4 4 3 3 3 3 7 8 10 11 13 15 15 14 14 14 14 13 13 12
0 1 1 1 1 1 1 2 2 2 2 2 3 3 2 2 2 2 2 3 4 4 3 4 3 3 3 3 5 7 7 10 11 13 15 15 13 12 12 13 13 12 10
0 1 1 1 0 0 1 1 1 2 2 2 3 3 3 2 2 2 1 2 3 6 6 4 3 3 3 3 6 6 6 9 11 12 13 12 11 11 10 10 11 9 9
0 1 1 1 1 1 1 0 1 2 2 2 2 3 3 2 2 2 2 2 3 4 6 4 4 3 4 5 7 6 6 10 12 12 12 12 11 11 10 9 9 9 9
1 1 0 1 1 1 1 1 1 1 2 2 2 3 3 3 2 2 2 3 3 3 6 6 4 4 4 5 5 5 6 6 7 12 12 12 12 12 11 10 9 9 9
1 1 0 0 0 0 1 1 2 2 3 3 3 3 3 3 3 3 3 4 4 4 5 8 6 4 5 6 6 6 6 6 6 10 12 12 12 12 11 11 9 9 9
1 1 0 0 0 0 1 1 1 2 3 3 3 4 4 4 4 3 3 4 4 4 4 6 7 5 4 4 5 5 6 5 6 7 10 11 12 11 11 11 10 10 9
1 1 1 1 0 1 1 1 1 2 3 3 3 4 4 4 5 5 4 5 4 4 5 5 6 5 4 4 4 5 5 4 5 5 7 8 10 11 12 12 11 10 9
2 2 2 1 1 1 1 1 2 2 3 3 3 3 4 5 6 5 5 4 4 4 5 5 6 5 5 4 4 4 6 5 5 4 4 5 5 5 7 10 10 10 10
3 2 2 2 2 2 4 4 3 3 3 3 4 3 4 4 5 7 7 8 7 6 6 6 6 6 7 6 5 5 5 5 6 3 3 5 3 5 5 5 9 11 11
2 2 2 2 2 3 5 5 5 3 3 3 3 3 3 4 5 3 5 7 7 9 9 7 7 8 8 6 6 7 6 6 6 4 3 5 3 5 4 5 8 10 10
2 1 2 2 2 3 5 6 6 3 2 3 3 3 3 4 4 5 4 4 5 5 7 6 7 8 7 7 7 8 8 6 4 3 3 5 4 4 3 3 8 10 10
2 2 2 2 2 4 6 6 5 2 2 3 3 3 4 4 7 8 5 4 6 6 7 9 11 11 12 11 8 5 5 4 5 4 3 3 2 2 2 3 5 9 10
1 2 2 2 2 3 6 7 5 1 2 2 3 3 5 6 8 8 5 4 6 6 6 7 8 9 8 8 8 6 5 5 4 4 3 3 2 2 2 2 2 4 6
Wind_Direction
174 174 173 171 174 176 179 183 193 202 206 202 197 197 206 210 188 166 159 177 182 201 216 222 230 239 245 252 257 264 273 279 282 281 283 283 286 286 289 299 303 301 297
174 174 173 170 176 182 180 184 197 202 201 197 203 202 201 202 192 167 159 184 192 201 216 224 233 241 247 251 256 260 263 267 275 282 282 280 280 281 282 283 286 287 291
176 171 171 173 180 181 177 180 199 199 189 194 209 215 211 208 197 188 176 177 190 207 218 228 234 241 248 251 255 260 263 265 268 273 276 278 280 277 273 272 274 281 280
179 173 171 174 175 171 172 180 184 184 190 195 208 220 217 212 211 207 191 183 185 195 215 226 234 242 247 254 258 263 264 265 265 267 268 271 276 274 270 268 266 276 271
180 174 175 174 171 170 171 180 178 174 186 197 208 217 216 216 223 218 212 202 195 193 196 212 219 230 245 254 261 265 266 264 262 263 261 264 268 271 270 272 267 269 265
173 166 167 169 162 161 168 171 172 176 176 181 219 241 232 227 225 220 224 217 205 202 197 202 209 225 235 246 256 263 266 265 262 259 258 258 263 268 268 269 272 265 258
170 161 160 158 160 171 175 175 170 180 183 162 166 253 262 241 230 226 217 216 216 215 210 210 209 215 226 234 245 259 266 267 264 259 258 257 259 263 266 266 269 264 249
161 160 159 159 161 167 171 175 165 172 177 172 163 165 262 273 256 237 223 224 228 221 222 224 217 217 218 218 238 246 257 267 264 263 260 258 258 261 263 265 265 259 239
158 153 158 157 157 163 175 178 169 170 185 193 176 169 185 226 265 246 230 225 229 229 229 225 228 230 230 223 231 242 253 262 268 268 265 261 259 259 262 261 262 252 239
148 141 147 155 157 173 180 184 176 181 175 194 206 214 208 176 199 262 250 232 234 239 240 245 237 235 236 238 240 242 247 255 267 270 271 268 263 260 262 257 254 249 245
160 150 152 157 172 185 183 183 181 183 188 193 199 215 239 248 224 226 262 257 252 245 247 247 245 241 240 241 240 247 246 255 264 268 271 271 268 265 264 258 251 250 248
139 146 145 153 171 175 180 190 197 193 199 202 206 203 212 221 227 230 255 264 259 254 253 246 243 241 240 241 247 255 255 259 265 268 272 274 273 269 265 262 256 250 247
154 147 133 142 174 177 171 181 199 207 210 208 215 223 228 236 238 242 258 272 273 266 246 240 239 242 251 243 249 257 258 259 263 268 272 275 275 274 267 264 260 252 247
130 119 112 126 193 176 170 189 204 209 213 219 229 232 237 246 246 247 248 266 282 277 255 252 253 237 244 253 258 256 256 256 260 264 268 272 275 274 270 263 259 253 245
161 133 139 161 145 124 165 169 205 217 218 222 227 229 235 238 235 238 244 243 254 276 273 258 258 254 254 257 256 255 254 256 260 262 265 270 270 268 266 264 250 240 239
169 99 122 159 162 169 144 162 243 239 229 237 232 230 237 251 254 248 249 257 253 262 274 271 275 279 271 276 268 264 262 265 261 260 260 262 263 264 260 257 246 236 233
77 85 126 176 178 181 181 194 243 273 250 255 260 248 248 252 253 254 252 249 253 262 272 284 286 289 273 269 270 262 261 257 256 257 257 257 258 256 253 249 240 234 230
39 28 305 210 174 238 222 214 234 250 246 243 253 258 260 259 249 250 246 251 256 258 268 282 288 287 276 265 266 268 269 268 262 258 254 254 253 250 246 238 232 231 229
4 352 360 122 213 261 271 267 252 254 255 252 251 254 258 250 247 248 252 253 258 266 265 277 282 284 284 274 276 278 272 269 270 265 257 254 251 248 240 234 228 227 224
357 347 341 307 258 268 283 293 297 289 281 277 271 263 259 249 247 248 251 248 255 265 270 276 282 283 284 281 273 276 280 268 269 270 260 257 253 249 240 233 226 222 219
356 335 328 323 311 294 309 312 298 292 284 285 282 279 280 277 272 268 267 257 257 260 268 273 280 287 285 286 272 274 279 286 278 260 257 252 248 244 234 227 218 211 211
358 356 351 348 346 337 337 332 317 291 289 286 292 297 296 286 292 297 295 288 277 266 265 267 276 279 281 279 276 271 274 280 277 244 248 264 246 248 243 226 218 210 204
356 351 347 350 337 325 327 322 318 307 296 292 292 294 306 309 307 299 302 305 297 288 279 270 270 274 278 274 270 265 257 258 264 254 250 263 247 250 247 239 224 213 206
344 331 329 331 332 331 336 329 319 307 294 296 297 299 303 310 310 317 308 303 296 293 287 277 266 270 275 274 261 259 257 262 272 256 227 255 252 250 249 239 227 216 210
353 349 349 349 342 336 342 344 349 338 329 325 323 324 316 309 312 319 316 302 299 296 300 302 298 293 291 287 282 274 256 249 265 260 227 227 248 267 261 240 228 216 209
352 354 359 359 353 344 349 350 354 349 336 331 329 323 318 317 320 322 316 302 297 300 308 309 305 303 298 288 284 264 252 246 255 255 213 205 215 205 254 244 223 214 205